Regional Weather Roundup
Issued by NWS

Home | Current Version | Previous Version | Text Only | Print | Product List | Glossary On
Versions: 1 2 3 4 5 6 7 8 9 10 11 12 13 14 15 16 17 18 19 20 21 22 23 24 25 26 27 28 29 30 31 32 33 34 35 36 37 38 39 40 41 42 43 44 45 46 47 48 49 50
000
ASUS43 KBIS 250910
RWRND

NORTH DAKOTA REGIONAL WEATHER ROUNDUP
NATIONAL WEATHER SERVICE BISMARCK ND
400 AM CDT SUN JUN 25 2017

NOTE: "FAIR" INDICATES FEW OR NO CLOUDS BELOW 12,000 FEET WITH NO
SIGNIFICANT WEATHER AND/OR OBSTRUCTIONS TO VISIBILITY.


NDZ001>003-009>011-017-251000-
NORTHWEST NORTH DAKOTA

CITY           SKY/WX    TMP DP  RH WIND       PRES   REMARKS
WILLISTON      PTCLDY    50  38  63 SW6       30.24F
MINOT          CLOUDY    50  41  71 SW9       30.24F
MINOT AFB      CLOUDY    49  42  78 SW10      30.22F
$$

NDZ018>021-031>035-040>046-251000-
SOUTHWEST NORTH DAKOTA

CITY           SKY/WX    TMP DP  RH WIND       PRES   REMARKS
BISMARCK       CLEAR     43  38  82 W3        30.28S
DICKINSON      CLEAR     41  33  73 SW10      30.27F
GARRISON         N/A     46  42  86 CALM      30.25F
HETTINGER ARPT CLEAR     39  30  70 CALM      30.33S
$$

NDZ004>008-012>016-024-026-027-054-251000-
NORTHEAST NORTH DAKOTA

CITY           SKY/WX    TMP DP  RH WIND       PRES   REMARKS
GRAND FORKS    CLEAR     44  42  93 NW8       30.18F
GRND FRKS AFB  CLEAR     44  40  86 NW7       30.20S
DEVILS LAKE    CLEAR     44  42  93 NW8       30.23S
$$

NDZ022-023-025-028>030-036>039-047>053-251000-
SOUTHEAST NORTH DAKOTA

CITY           SKY/WX    TMP DP  RH WIND       PRES   REMARKS
FARGO          CLEAR     48  42  80 NW10      30.18S
JAMESTOWN      CLEAR     45  43  93 NW6       30.23S
$$





USA.gov is the U.S. government's official web portal to all federal, state and local government web resources and services.